Jackson, TN

5:31 AM CST on December 18, 2017 (GMT -0600)
McKellar-Sipes Regional

Weather History for KMKL - July, 2013

Change the Weather History Date:

Wednesday, July 24, 2013

  Actual Average Record
Temperature  
Mean Temperature 77 °F 80 °F  
Max Temperature 86 °F 91 °F 101 °F (1965)
Min Temperature 68 °F 69 °F 58 °F (2003)
Degree Days  
Heating Degree Days 0 0  
Month to date heating degree days 0 0  
Since 1 June heating degree days 0 2  
Since 1 July heating degree days 0 0  
Cooling Degree Days 12 15  
Month to date cooling degree days 304 353  
Year to date cooling degree days 847 907  
Since 1 June cooling degree days 647 692  
Growing Degree Days 27 (Base 50)    
Moisture  
Dew Point 70 °F    
Average Humidity 83    
Maximum Humidity 100    
Minimum Humidity 65    
Precipitation  
Precipitation T in 0.16 in 1.93 in (1987)
Month to date precipitation 4.91 3.54  
Year to date precipitation 42.67 31.92  
Snow  
Snow 0.00 in - - ()
Month to date snowfall 0.0  
Since 1 June snowfall 0.0  
Snow Depth 0.00 in    
Sea Level Pressure  
Sea Level Pressure 29.90 in    
Wind  
Wind Speed 5 mph (North)    
Max Wind Speed 14 mph    
Max Gust Speed 16 mph    
Visibility 10 miles    
Events      
T = Trace of Precipitation, MM = Missing Value Source: NWS Daily Summary

Daily Weather History Graph

Daily Weather History Graph

Search for Another Location

Airport or City:

Trip Planner

Search our weather history database for the weather conditions in past years. The results will help you decide how hot, cold, wet, or windy it might be!

Date:

Astronomy

Jul. 24, 2013 Rise Set
Actual Time 5:58 AM CDT 8:05 PM CDT
Civil Twilight 5:29 AM CDT 8:34 PM CDT
Nautical Twilight 4:54 AM CDT 9:09 PM CDT
Astronomical Twilight 4:16 AM CDT 9:47 PM CDT
Moon 9:19 PM CDT (7/24) 8:11 AM CDT (7/24)
Length of Visible Light 15h 05m
Length of Day
14h 07m
Waning Gibbous, 94% of the Moon is Illuminated
Jul 24
Waning Gibbous
Jul 29
Last Quarter
Aug 6
New
Aug 14
First Quarter
Aug 20
Full

Hourly Weather History & Observations

Time (CDT) Temp. Heat Index Dew Point Humidity Pressure Visibility Wind Dir Wind Speed Gust Speed Precip Events Conditions
12:53 AM 73.9 °F - 71.1 °F 91% 29.88 in 10.0 mi NNW 9.2 mph - N/A   Clear
1:40 AM 73.4 °F - 71.6 °F 94% 29.88 in 10.0 mi NNW 4.6 mph - N/A   Mostly Cloudy
1:48 AM 73.4 °F - 71.6 °F 94% 29.89 in 10.0 mi NNW 5.8 mph - N/A   Scattered Clouds
1:53 AM 73.0 °F - 71.1 °F 93% 29.87 in 10.0 mi North 6.9 mph - N/A   Scattered Clouds
2:53 AM 72.0 °F - 70.0 °F 93% 29.87 in 10.0 mi Calm Calm - N/A   Clear
3:53 AM 72.0 °F - 69.1 °F 91% 29.85 in 10.0 mi WNW 3.5 mph - N/A   Clear
4:53 AM 70.0 °F - 69.1 °F 97% 29.84 in 8.0 mi Calm Calm - N/A   Clear
5:53 AM 70.0 °F - 68.0 °F 93% 29.85 in 9.0 mi Calm Calm - N/A   Clear
6:53 AM 70.0 °F - 68.0 °F 93% 29.86 in 9.0 mi Calm Calm - N/A   Clear
7:53 AM 73.0 °F - 70.0 °F 90% 29.90 in 10.0 mi East 4.6 mph - N/A   Clear
8:53 AM 78.1 °F - 71.1 °F 79% 29.91 in 10.0 mi NNE 4.6 mph - N/A   Clear
9:46 AM 77.0 °F - 71.6 °F 83% 29.93 in 10.0 mi NNE 6.9 mph - N/A   Mostly Cloudy
9:53 AM 78.1 °F - 72.0 °F 81% 29.91 in 10.0 mi NNE 6.9 mph - N/A   Scattered Clouds
10:53 AM 78.1 °F - 71.1 °F 79% 29.91 in 10.0 mi NE 3.5 mph - N/A   Mostly Cloudy
11:04 AM 78.8 °F - 71.6 °F 78% 29.93 in 10.0 mi ENE 3.5 mph - N/A   Mostly Cloudy
11:27 AM 80.6 °F 84.6 °F 71.6 °F 74% 29.93 in 10.0 mi Variable 4.6 mph - N/A   Scattered Clouds
11:53 AM 82.0 °F 86.3 °F 71.1 °F 69% 29.91 in 10.0 mi NE 8.1 mph - N/A   Partly Cloudy
12:53 PM 80.1 °F 83.2 °F 70.0 °F 71% 29.91 in 10.0 mi Variable 4.6 mph - N/A   Overcast
1:53 PM 79.0 °F - 71.1 °F 77% 29.91 in 10.0 mi Calm Calm - N/A   Overcast
2:53 PM 81.0 °F 84.9 °F 71.1 °F 72% 29.91 in 10.0 mi West 4.6 mph - N/A   Mostly Cloudy
3:53 PM 82.0 °F 86.3 °F 71.1 °F 69% 29.89 in 10.0 mi West 3.5 mph - N/A   Partly Cloudy
4:53 PM 84.0 °F 89.0 °F 71.1 °F 65% 29.88 in 10.0 mi WNW 5.8 mph - N/A   Partly Cloudy
5:53 PM 84.9 °F 90.1 °F 71.1 °F 63% 29.87 in 10.0 mi NW 8.1 mph - N/A   Scattered Clouds
6:53 PM 81.0 °F 84.9 °F 71.1 °F 72% 29.89 in 10.0 mi North 11.5 mph - N/A   Scattered Clouds
7:53 PM 79.0 °F - 69.1 °F 72% 29.91 in 10.0 mi North 8.1 mph - N/A   Scattered Clouds
8:53 PM 75.9 °F - 69.1 °F 79% 29.92 in 10.0 mi North 5.8 mph - 0.00 in   Overcast
9:53 PM 73.0 °F - 66.9 °F 81% 29.95 in 10.0 mi North 4.6 mph - N/A   Partly Cloudy
10:53 PM 72.0 °F - 66.0 °F 81% 29.97 in 10.0 mi North 5.8 mph - N/A   Scattered Clouds
11:53 PM 69.1 °F - 64.9 °F 87% 29.97 in 10.0 mi NNE 5.8 mph - N/A   Clear